Location: Delia
(51.6321°N, 112.3740°W)
Time: 20:59:29
(UTC+00:00)

Envisat - Pass Details

Date: 02 December 2021
Orbit: 764 x 766 km, 98.2° (Epoch: 26 January)

Event Time Altitude Azimuth Distance (km) Brightness Sun altitude
Rises 01:24:13 0° 228° (SW) 3,226 7.3 -17.9°
Reaches altitude 10° 01:29:21 10° 273° (W) 2,309 6.6 -18.6°
Maximum altitude 01:29:46 10° 278° (W) 2,304 6.5 -18.7°
Drops below altitude 10° 01:30:11 10° 283° (WNW) 2,311 6.5 -18.8°
Sets 01:35:23 0° 328° (NNW) 3,247 6.5 -19.6°
